Simultaneous Nadir Overpasses (SNOs) Predictions

Prediction of SNOs between METOP-A and NOAA-19 Satellite Orbit:

Table of predicted SNOs for the next 14.0 days since TLE Epoch: 11/17/2017
Index Date (METOP-A) Time (METOP-A) Lat,Lon (METOP-A) SZA (METOP-A ) Date (NOAA-19) Time (NOAA-19) Lat,Lon (NOAA-19) SZA (NOAA-19 ) Distance(km) Time Diff (sec)
1 11/28/2017 05:35:42 77.89, 102.60 99.32 11/28/2017 05:34:42 77.86, 102.67 99.28 3.38 60
2 11/28/2017 06:26:24 -77.88, -90.12 80.70 11/28/2017 06:25:37 -77.87, -90.09 80.71 1.41 47
3 11/28/2017 07:17:04 77.87, 77.16 99.30 11/28/2017 07:16:43 77.85, 77.25 99.28 3.14 21
4 11/28/2017 08:07:46 -77.86,-115.57 80.71 11/28/2017 08:07:38 -77.85,-115.51 80.71 1.41 8
5 11/28/2017 08:58:26 77.85, 51.71 99.29 11/28/2017 08:58:44 77.83, 51.83 99.28 3.15 18
6 11/28/2017 09:49:08 -77.84,-141.01 80.72 11/28/2017 09:49:39 -77.84,-140.93 80.71 1.87 31
7 11/28/2017 10:39:48 77.83, 26.27 99.28 11/28/2017 10:40:45 77.82, 26.40 99.28 3.39 57
8 11/28/2017 11:30:30 -77.82,-166.46 80.73 11/28/2017 11:31:40 -77.82,-166.36 80.71 2.55 70




NCC Satellite Simultaneous Nadir Overpasses (SNOs) Prediction Service
